{"data":{"norad_id":56919,"epoch":"2026-09-19T18:23:36.007008Z","epoch_age_seconds":180972,"freshness":"STALE","line1":"1 56919U 23083AV  26262.76638897  .00000580  00000+0  30616-4 0  9990","line2":"2 56919  43.0014  54.2965 0001812 258.8975 101.1673 15.27579557181485","mean_motion":15.27579557,"eccentricity":0.0001812,"inclination_deg":43.0014,"raan_deg":54.2965,"arg_perigee_deg":258.8975,"mean_anomaly_deg":101.1673,"bstar":3.0616e-5,"rev_number":18148,"period_min":94.266776051128,"perigee_km":481.80717538038,"apogee_km":484.29366970231,"semimajor_km":6861.1874225413,"source":"CELESTRAK","updated_at":"2026-09-21T09:00:33.528883Z"}}